Simultaneous Nadir Overpasses (SNOs) Predictions

Prediction of SNOs between NOAA-20 and NOAA-19 Satellite Orbit:

Table of predicted SNOs for the next 14.0 days since TLE Epoch: 12/2/2017
Index Date (NOAA-20) Time (NOAA-20) Lat,Lon (NOAA-20) SZA (NOAA-20 ) Date (NOAA-19) Time (NOAA-19) Lat,Lon (NOAA-19) SZA (NOAA-19 ) Distance(km) Time Diff (sec)
1 12/10/2017 15:12:39 80.71, -95.48 106.27 12/10/2017 15:11:29 80.72, -95.65 106.33 3.32 70
2 12/10/2017 16:03:20 -80.72, 71.60 73.69 12/10/2017 16:02:26 -80.72, 71.69 73.68 1.62 54
3 12/10/2017 16:54:00 80.72,-121.07 106.32 12/10/2017 16:53:30 80.72,-121.02 106.33 0.90 30
4 12/10/2017 17:44:40 -80.72, 46.35 73.70 12/10/2017 17:44:27 -80.72, 46.32 73.68 1.22 13
5 12/10/2017 18:35:20 80.72,-146.31 106.31 12/10/2017 18:35:31 80.73,-146.39 106.32 1.91 11
6 12/10/2017 19:26:01 -80.73, 20.77 73.65 12/10/2017 19:26:28 -80.73, 20.95 73.69 3.31 27
7 12/10/2017 20:16:41 80.73,-171.90 106.36 12/10/2017 20:17:32 80.73,-171.76 106.32 2.49 51




NCC Satellite Simultaneous Nadir Overpasses (SNOs) Prediction Service
